Location: Champs
(48.8539°N, 2.6040°E)
Time: 19:22:56
(UTC+00:00)

USA 306 - Visible Passes

Search period start: 25 May 2022 00:00
Search period end: 04 June 2022 00:00
Orbit: 552 x 563 km, 54.0° (Epoch: 18 April)

Date Brightness Start Highest point End Pass type
(mag) Time Alt. Az. Time Alt. Az. Time Alt. Az.
25 May 4.5 00:16:26 21° ESE 00:16:26 21° ESE 00:18:53 10° E visible
25 May 2.8 01:52:08 22° WSW 01:54:47 88° NNW 01:58:59 10° ENE visible
26 May 4.0 00:11:52 27° ESE 00:11:52 27° ESE 00:14:51 10° ENE visible
26 May 3.0 01:47:34 18° WSW 01:50:33 73° NNW 01:54:44 10° ENE visible
27 May 3.6 00:07:12 36° SE 00:07:12 36° SE 00:10:43 10° ENE visible
27 May 3.2 01:42:53 15° W 01:46:18 62° NNW 01:50:27 10° ENE visible
28 May 3.1 00:02:24 48° SE 00:02:26 48° SE 00:06:28 10° ENE visible
28 May 3.5 01:38:04 11° W 01:42:01 54° NNW 01:46:08 10° ENE visible
28 May 2.8 23:57:27 54° S 23:58:02 62° SE 00:02:09 10° ENE visible
29 May 3.7 01:33:41 10° W 01:37:44 48° NNW 01:41:47 10° ENE visible
29 May 5.0 22:16:39 13° E 22:16:39 13° E 22:17:21 10° E visible
29 May 2.7 23:52:18 43° SW 23:53:36 77° SSE 23:57:47 10° ENE visible
30 May 3.9 01:29:24 10° W 01:33:25 44° N 01:37:25 10° ENE visible
30 May 4.0 03:09:30 10° WNW 03:13:32 45° NNE 03:17:33 10° E visible
30 May 4.4 22:11:14 20° ESE 22:11:14 20° ESE 22:13:17 10° E visible
30 May 2.8 23:46:50 25° WSW 23:49:10 87° NNW 23:53:21 10° ENE visible
31 May 4.1 01:25:05 10° WNW 01:29:04 42° N 01:33:03 10° ENE visible
31 May 3.9 03:05:06 10° WNW 03:09:10 49° NNE 03:13:14 10° E visible
31 May 3.6 22:05:15 29° SE 22:05:24 29° SE 22:09:02 10° ENE visible
31 May 3.0 23:40:49 12° WSW 23:44:43 73° NNW 23:48:53 10° ENE visible
01 Jun 4.2 01:20:44 10° WNW 01:24:41 40° N 01:28:39 10° ENE visible
01 Jun 3.6 03:00:39 10° WNW 03:04:46 56° NNE 03:08:52 10° E visible
01 Jun 3.3 21:57:47 15° SSW 22:00:48 38° SE 22:04:40 10° ENE visible
01 Jun 3.3 23:36:06 10° WSW 23:40:14 62° NNW 23:44:23 10° ENE visible
02 Jun 4.2 01:16:20 10° WNW 01:20:17 40° N 01:24:14 10° ENE visible
02 Jun 3.4 02:56:08 10° WNW 03:00:18 65° NNE 03:04:27 10° ESE visible
02 Jun 3.0 21:52:11 10° SW 21:56:11 48° SE 22:00:12 10° ENE visible
02 Jun 3.6 23:31:40 10° W 23:35:45 54° NNW 23:39:51 10° ENE visible
03 Jun 4.2 01:11:52 10° WNW 01:15:50 40° N 01:19:48 10° ENE visible
03 Jun 3.1 02:51:36 10° WNW 02:55:47 76° NNE 02:59:57 10° ESE visible
03 Jun 2.8 21:47:27 10° SW 21:51:33 62° SSE 21:55:40 10° ENE visible
03 Jun 3.8 23:27:12 10° W 23:31:14 48° NNW 23:35:17 10° ENE visible
